Location: Aix-en-Ergny
(50.5839°N, 1.9996°E)
Time: 23:42:05
(UTC+00:00)

Cosmos 2237 Rocket - Pass Details

Date: 23 October 2019
Orbit: 833 x 851 km, 71.0° (Epoch: 14 November)

Event Time Altitude Azimuth Distance (km) Brightness Sun altitude
Exits shadow 02:19:57 22° 96° (E) 1,792 4.2 -38.4°
Drops below altitude 10° 02:23:49 10° 53° (NE) 2,486 5.4 -37.9°
Sets 02:26:47 0° 39° (NE) 3,428 6.2 -37.5°
